PAII Airport (Egegik) Information

FAA: EII - ICAO: PAII

PAII Airport Location

State Alaska
County Bristol Bay
City Egegik
PAII Airport is 2 miles south of Egegik, AK.
Latitude 58-11-07.7650N
Longitude 157-22-31.5400W
Elevation 92ft

PAII Airport METARs

METAR PAII 251556Z AUTO 33007G19KT 200V050 9SM -SN BKN010 OVC037 M02/M03 A2919 RMK AO2 SNB31 SLP883 P0000 T10171028 FZRANO
Altimeter 29.19"
Temperature -1.7°C (28.9°F)
Wind 330° at 7KT with gusts to 19KT
Clouds broken at 1,000ft overcast at 3,700ft
Visibility 9.0mi
Time observed: 2021-10-25T15:56:00Z

PAII Airport Details

Status Operational
Activation September 1994
Ownership Public
Usage Public
Chart KODIAK
ATC on-site No
Beacon schedule N/A
Beacon color clear green

PAII Airport Contacts

Owner CITY OF EGEGIK
Owner address PO BOX 189, EGEGIK, AK 99579
Owner phone 907-233-2400
Manager ALVIN WERNEKE
Manager address BOX 55, KOTZEBUE, AK 99752
Manager phone 907-442-3147

PAII Airport (Egegik) Radio Frequencies

PAII (Airport) Radio Frequencies

UNICOM N/A
Common traffic advisory frequency (CTAF) 122.8